Retour au catalogue

STARLINK-33556

ActifCommunicationsVLEO
NORAD 62109·PAYLOAD·🇺🇸 United States

Lancé Nov 25, 2024 depuis Cape Canaveral Space Force Station

Loading…

Prochains Passages (prochaines 24 heures)

TLE

FraisSource: CelesTrak SupGP

Époque: Sep 15, 2026, 03:03 UTC

1 62109C 24220X   26258.12756944 -.00036041  00000+0 -13056-2 0  2589
2 62109  42.9995 215.4982 0001125 268.5398 160.9747 15.27590429    18

Suivez STARLINK-33556 en temps réel avec AllMySat

Download on the App Store